Arlington, TX

2:26 PM CDT on April 25, 2017 (GMT -0500)
Arlington Municipal

Weather History for KGKY - May, 2013

Change the Weather History Date:

Tuesday, May 28, 2013

  Actual Average (KRBD) Record (KRBD)
Temperature  
Mean Temperature 78 °F -  
Max Temperature 84 °F 85 °F 96 °F (1998)
Min Temperature 71 °F 66 °F 55 °F (2003)
Cooling Degree Days 12    
Growing Degree Days 28 (Base 50)    
Moisture  
Dew Point 67 °F    
Average Humidity 70    
Maximum Humidity 84    
Minimum Humidity 55    
Precipitation  
Precipitation 0.00 in - - ()
Sea Level Pressure  
Sea Level Pressure 29.82 in    
Wind  
Wind Speed 15 mph (SSE)    
Max Wind Speed 28 mph    
Max Gust Speed 39 mph    
Visibility 10 miles    
Events      
Averages and records for this station are not official NWS values.
T = Trace of Precipitation, MM = Missing Value Source: NWS Daily Summary

Daily Weather History Graph

Daily Weather History Graph

Search for Another Location

Airport or City:

Trip Planner

Search our weather history database for the weather conditions in past years. The results will help you decide how hot, cold, wet, or windy it might be!

Date:

Astronomy

May. 28, 2013 Rise Set
Actual Time 6:22 AM CDT 8:29 PM CDT
Civil Twilight 5:54 AM CDT 8:56 PM CDT
Nautical Twilight 5:20 AM CDT 9:31 PM CDT
Astronomical Twilight 4:44 AM CDT 10:07 PM CDT
Moon No Moon Rise 10:07 AM CDT (5/28)
Length of Visible Light 15h 02m
Length of Day
14h 06m
Waning Gibbous, 82% of the Moon is Illuminated
May 28
Waning Gibbous
May 31
Last Quarter
Jun 8
New
Jun 16
First Quarter
Jun 23
Full

Hourly Weather History & Observations

Time (CDT) Temp. Heat Index Dew Point Humidity Pressure Visibility Wind Dir Wind Speed Gust Speed Precip Events Conditions
12:53 AM 77.0 °F - 66.9 °F 71% 29.83 in 10.0 mi SSE 12.7 mph 20.7 mph N/A   Clear
1:53 AM 75.0 °F - 66.9 °F 76% 29.81 in 10.0 mi SSE 15.0 mph 21.9 mph N/A   Clear
2:53 AM 73.9 °F - 64.9 °F 73% 29.79 in 10.0 mi South 13.8 mph 23.0 mph N/A   Clear
3:53 AM 72.0 °F - 66.0 °F 81% 29.78 in 10.0 mi South 12.7 mph 23.0 mph N/A   Clear
4:53 AM 72.0 °F - 66.9 °F 84% 29.80 in 10.0 mi SSE 12.7 mph - N/A   Partly Cloudy
5:44 AM 71.6 °F - 66.2 °F 83% 29.83 in 10.0 mi SSE 15.0 mph 21.9 mph N/A   Mostly Cloudy
5:53 AM 72.0 °F - 66.9 °F 84% 29.81 in 10.0 mi SSE 11.5 mph 21.9 mph N/A   Mostly Cloudy
6:31 AM 71.6 °F - 66.2 °F 83% 29.84 in 10.0 mi SSE 15.0 mph 23.0 mph N/A   Scattered Clouds
6:48 AM 71.6 °F - 66.2 °F 83% 29.85 in 10.0 mi SSE 16.1 mph - N/A   Mostly Cloudy
6:53 AM 72.0 °F - 66.9 °F 84% 29.83 in 10.0 mi SSE 13.8 mph 21.9 mph N/A   Scattered Clouds
7:51 AM 73.4 °F - 68.0 °F 83% 29.87 in 10.0 mi SSE 15.0 mph 21.9 mph N/A   Mostly Cloudy
7:53 AM 73.0 °F - 68.0 °F 84% 29.84 in 10.0 mi SSE 13.8 mph 21.9 mph N/A   Mostly Cloudy
8:19 AM 73.4 °F - 68.0 °F 83% 29.87 in 10.0 mi SSE 16.1 mph 23.0 mph N/A   Mostly Cloudy
8:36 AM 75.2 °F - 68.0 °F 78% 29.87 in 10.0 mi SSE 16.1 mph 24.2 mph N/A   Mostly Cloudy
8:53 AM 75.9 °F - 68.0 °F 76% 29.84 in 10.0 mi SSE 17.3 mph 24.2 mph N/A   Mostly Cloudy
9:53 AM 77.0 °F - 66.9 °F 71% 29.85 in 10.0 mi South 15.0 mph 33.4 mph N/A   Mostly Cloudy
10:00 AM 77.0 °F - 66.2 °F 69% 29.88 in 10.0 mi South 15.0 mph 28.8 mph N/A   Overcast
10:42 AM 78.8 °F - 66.2 °F 65% 29.87 in 10.0 mi South 18.4 mph 31.1 mph N/A   Scattered Clouds
10:53 AM 79.0 °F - 66.0 °F 64% 29.84 in 10.0 mi South 24.2 mph 35.7 mph N/A   Scattered Clouds
11:53 AM 81.0 °F 83.0 °F 66.0 °F 60% 29.86 in 10.0 mi SSE 20.7 mph 29.9 mph N/A   Mostly Cloudy
12:53 PM 82.0 °F 83.8 °F 64.9 °F 56% 29.84 in 10.0 mi South 13.8 mph 26.5 mph N/A   Partly Cloudy
1:53 PM 82.0 °F 83.8 °F 64.9 °F 56% 29.83 in 10.0 mi SSE 15.0 mph 28.8 mph N/A   Scattered Clouds
2:53 PM 82.9 °F 85.0 °F 66.0 °F 56% 29.82 in 10.0 mi SSE 13.8 mph 24.2 mph N/A   Scattered Clouds
3:53 PM 84.0 °F 86.3 °F 66.0 °F 55% 29.81 in 10.0 mi SSE 17.3 mph 25.3 mph N/A   Scattered Clouds
4:53 PM 84.0 °F 86.5 °F 66.9 °F 56% 29.78 in 10.0 mi SSE 17.3 mph 24.2 mph N/A   Clear
5:53 PM 82.9 °F 85.4 °F 66.9 °F 58% 29.76 in 10.0 mi SE 15.0 mph - N/A   Clear
6:53 PM 84.0 °F 86.5 °F 66.9 °F 56% 29.74 in 10.0 mi SE 13.8 mph 25.3 mph N/A   Clear
7:53 PM 82.9 °F 85.0 °F 66.0 °F 56% 29.76 in 10.0 mi SE 13.8 mph - N/A   Clear
8:53 PM 80.1 °F 82.1 °F 66.0 °F 62% 29.78 in 10.0 mi SSE 11.5 mph - N/A   Partly Cloudy
9:53 PM 80.1 °F 82.1 °F 66.0 °F 62% 29.77 in 10.0 mi SE 15.0 mph - N/A   Partly Cloudy
10:53 PM 79.0 °F - 68.0 °F 69% 29.76 in 10.0 mi SE 18.4 mph 26.5 mph N/A   Clear
11:53 PM 77.0 °F - 69.1 °F 76% 29.73 in 10.0 mi SE 27.6 mph 39.1 mph N/A   Clear